DW8343 Weather Reports


time (UTC)temp
C
wind
direction
speed
KPH
gust
KPH
rain 1hr
cm
rain 24hr
cm
rain mn
cm
humidity
%
barometer
mb
20260902014938 33 44 0.0 0.0 0.00 0.00 0.00 41 1015.2
20260902014435 33 101 1.6 3.2 0.00 0.00 0.00 40 1015.2
20260902013934 33 9 0.0 1.6 0.00 0.00 0.00 40 1015.2
20260902013430 33 0 0.0 1.6 0.00 0.00 0.00 39 1015.0
20260902012925 33 19 0.0 3.2 0.00 0.00 0.00 39 1014.9
20260902012420 34 37 0.0 1.6 0.00 0.00 0.00 38 1014.9
20260902011916 34 64 1.6 1.6 0.00 0.00 0.00 38 1014.8
20260902011410 34 354 0.0 3.2 0.00 0.00 0.00 37 1014.8
20260902010910 34 298 0.0 6.4 0.00 0.00 0.00 36 1015.0
20260902010405 35 98 0.0 4.8 0.00 0.00 0.00 36 1014.9
20260902005905 35 287 0.0 6.4 0.00 0.00 0.00 35 1014.8
20260902005404 35 63 0.0 3.2 0.00 0.00 0.00 35 1014.8
20260902004900 35 47 3.2 4.8 0.00 0.00 0.00 35 1014.8
20260902004359 35 335 0.0 1.6 0.00 0.00 0.00 34 1014.6
20260902003849 35 72 3.2 6.4 0.00 0.00 0.00 34 1014.7
20260902003344 35 335 0.0 0.0 0.00 0.00 0.00 35 1014.8
20260902002840 35 284 1.6 4.8 0.00 0.00 0.00 34 1014.9
20260902002339 35 246 1.6 4.8 0.00 0.00 0.00 34 1014.8
20260902001835 36 64 0.0 1.6 0.00 0.00 0.00 34 1015.0
20260902001329 36 62 1.6 3.2 0.00 0.00 0.00 34 1015.1
20260902000824 36 322 0.0 11.3 0.00 0.00 0.00 33 1015.1
20260902000322 36 337 1.6 6.4 0.00 0.00 0.00 33 1015.0
20260901235814 36 292 3.2 9.7 0.00 0.00 0.00 33 1014.8
20260901235308 36 304 4.8 11.3 0.00 0.00 0.00 32 1014.7
20260901234808 36 268 1.6 4.8 0.00 0.00 0.00 32 1015.1
20260901234303 36 326 4.8 6.4 0.00 0.00 0.00 32 1015.2
20260901233758 36 255 3.2 6.4 0.00 0.00 0.00 33 1014.9
20260901233253 36 276 1.6 9.7 0.00 0.00 0.00 32 1015.1
20260901232748 37 58 1.6 3.2 0.00 0.00 0.00 32 1015.3
20260901232243 37 205 3.2 4.8 0.00 0.00 0.00 31 1015.3
20260901231739 37 4 0.0 3.2 0.00 0.00 0.00 31 1015.3
20260901231236 37 290 0.0 6.4 0.00 0.00 0.00 31 1015.4
20260901230732 37 65 3.2 6.4 0.00 0.00 0.00 31 1015.3
20260901230231 37 124 0.0 4.8 0.00 0.00 0.00 31 1015.1
20260901225727 37 153 3.2 6.4 0.00 0.00 0.00 31 1015.3
20260901225221 37 318 3.2 4.8 0.00 0.00 0.00 32 1015.3
20260901224717 37 7 6.4 12.9 0.00 0.00 0.00 32 1015.4
20260901224213 37 267 4.8 6.4 0.00 0.00 0.00 31 1015.1
20260901223709 37 294 3.2 4.8 0.00 0.00 0.00 31 1015.1
20260901223203 37 273 0.0 3.2 0.00 0.00 0.00 30 1015.1
20260901222700 38 68 1.6 3.2 0.00 0.00 0.00 30 1015.2
20260901222155 38 312 0.0 4.8 0.00 0.00 0.00 30 1015.1
20260901221651 38 130 3.2 6.4 0.00 0.00 0.00 30 1015.0
20260901221147 38 270 3.2 11.3 0.00 0.00 0.00 30 1015.1
20260901220646 38 99 1.6 4.8 0.00 0.00 0.00 30 1015.1
20260901220145 38 264 1.6 6.4 0.00 0.00 0.00 29 1015.2
20260901215644 38 294 1.6 9.7 0.00 0.00 0.00 29 1015.1
20260901215139 38 265 3.2 4.8 0.00 0.00 0.00 30 1015.3
20260901214637 37 242 1.6 4.8 0.00 0.00 0.00 31 1015.3
20260901214136 37 42 1.6 1.6 0.00 0.00 0.00 31 1015.4
20260901213630 37 307 1.6 9.7 0.00 0.00 0.00 30 1015.3
20260901213125 39 218 1.6 4.8 0.00 0.00 0.00 29 1015.6
20260901212625 38 238 8.0 11.3 0.00 0.00 0.00 30 1015.3
20260901212121 38 19 1.6 6.4 0.00 0.00 0.00 30 1015.6
20260901211616 39 299 1.6 1.6 0.00 0.00 0.00 28 1015.8
20260901211113 38 136 3.2 12.9 0.00 0.00 0.00 29 1015.6
20260901210608 40 175 1.6 3.2 0.00 0.00 0.00 28 1015.8
20260901210104 40 200 6.4 11.3 0.00 0.00 0.00 27 1015.8
20260901205559 39 113 3.2 4.8 0.00 0.00 0.00 28 1015.8
20260901205053 40 180 4.8 11.3 0.00 0.00 0.00 28 1015.8
20260901204549 39 182 4.8 9.7 0.00 0.00 0.00 29 1015.9
20260901204044 39 206 0.0 3.2 0.00 0.00 0.00 28 1016.2
20260901203538 38 37 3.2 12.9 0.00 0.00 0.00 29 1016.4
20260901203033 38 269 4.8 11.3 0.00 0.00 0.00 28 1016.3
20260901202528 37 153 3.2 3.2 0.00 0.00 0.00 29 1016.3
20260901202024 38 270 6.4 11.3 0.00 0.00 0.00 28 1016.5
20260901201519 37 261 3.2 9.7 0.00 0.00 0.00 29 1016.7
20260901201014 37 301 0.0 3.2 0.00 0.00 0.00 28 1016.7
20260901200508 38 240 3.2 14.5 0.00 0.00 0.00 28 1016.7
20260901200003 38 320 3.2 6.4 0.00 0.00 0.00 28 1016.9
20260901195501 38 320 3.2 6.4 0.00 0.00 0.00 28 1016.9
20260901195000 38 137 3.2 16.1 0.00 0.00 0.00 28 1016.9
20260901194455 38 64 1.6 11.3 0.00 0.00 0.00 28 1016.9
20260901193951 38 223 3.2 9.7 0.00 0.00 0.00 27 1016.8
20260901193450 38 63 1.6 4.8 0.00 0.00 0.00 29 1016.9
20260901192950 38 50 1.6 6.4 0.00 0.00 0.00 29 1016.9
20260901192446 37 151 1.6 6.4 0.00 0.00 0.00 29 1017.2
20260901191942 39 301 3.2 6.4 0.00 0.00 0.00 27 1017.3
20260901191437 38 18 1.6 9.7 0.00 0.00 0.00 29 1017.2
20260901190933 38 178 1.6 9.7 0.00 0.00 0.00 28 1017.2
20260901190433 37 28 3.2 4.8 0.00 0.00 0.00 31 1017.3
20260901185931 36 170 3.2 4.8 0.00 0.00 0.00 30 1017.4
20260901185426 37 84 6.4 6.4 0.00 0.00 0.00 30 1017.4
20260901184926 37 44 3.2 16.1 0.00 0.00 0.00 28 1017.6
20260901184421 38 17 4.8 9.7 0.00 0.00 0.00 29 1017.6
20260901183916 37 221 3.2 6.4 0.00 0.00 0.00 30 1017.9
20260901183416 37 265 3.2 11.3 0.00 0.00 0.00 30 1017.8
20260901182912 37 295 3.2 3.2 0.00 0.00 0.00 30 1017.7
20260901182407 36 256 3.2 16.1 0.00 0.00 0.00 33 1017.9
20260901181902 37 277 3.2 4.8 0.00 0.00 0.00 31 1018.0
20260901181356 37 210 6.4 9.7 0.00 0.00 0.00 30 1017.8
20260901180855 37 89 3.2 11.3 0.00 0.00 0.00 31 1018.1
20260901180354 37 219 8.0 12.9 0.00 0.00 0.00 32 1018.2
20260901175853 37 210 1.6 9.7 0.00 0.00 0.00 33 1018.0
20260901175348 36 268 0.0 11.3 0.00 0.00 0.00 34 1018.2
20260901174843 37 69 1.6 4.8 0.00 0.00 0.00 33 1018.2
20260901174333 38 318 1.6 3.2 0.00 0.00 0.00 32 1018.1
20260901173829 37 355 1.6 11.3 0.00 0.00 0.00 34 1018.3
20260901173324 37 271 0.0 9.7 0.00 0.00 0.00 35 1018.6
20260901172821 36 295 1.6 11.3 0.00 0.00 0.00 34 1018.4
20260901172319 36 76 4.8 9.7 0.00 0.00 0.00 34 1018.6
20260901171817 36 199 3.2 9.7 0.00 0.00 0.00 34 1018.6
20260901171317 36 315 3.2 11.3 0.00 0.00 0.00 34 1018.5
20260901170816 36 306 1.6 9.7 0.00 0.00 0.00 36 1018.7
20260901170316 36 247 1.6 6.4 0.00 0.00 0.00 36 1018.7
20260901165815 36 246 3.2 9.7 0.00 0.00 0.00 35 1018.8
20260901165310 36 316 6.4 12.9 0.00 0.00 0.00 36 1018.8
20260901164807 36 191 4.8 6.4 0.00 0.00 0.00 36 1018.8
20260901164301 36 269 3.2 6.4 0.00 0.00 0.00 38 1018.8
20260901163756 36 126 8.0 11.3 0.00 0.00 0.00 37 1018.9
20260901163256 35 188 3.2 6.4 0.00 0.00 0.00 38 1018.8
20260901162751 35 230 9.7 12.9 0.00 0.00 0.00 38 1018.7
20260901162251 35 278 1.6 11.3 0.00 0.00 0.00 38 1019.0
20260901161749 35 67 1.6 6.4 0.00 0.00 0.00 38 1019.2
20260901161244 35 252 1.6 12.9 0.00 0.00 0.00 38 1018.9
20260901160740 35 268 3.2 16.1 0.00 0.00 0.00 39 1019.0
20260901160236 35 259 3.2 11.3 0.00 0.00 0.00 39 1018.9
20260901155735 35 94 1.6 4.8 0.00 0.00 0.00 40 1019.2
20260901155230 35 243 4.8 6.4 0.00 0.00 0.00 39 1019.0
20260901154725 35 295 4.8 9.7 0.00 0.00 0.00 40 1018.9
20260901154221 34 189 3.2 3.2 0.00 0.00 0.00 40 1018.9
20260901153716 33 231 3.2 6.4 0.00 0.00 0.00 42 1019.0
20260901153215 33 105 1.6 9.7 0.00 0.00 0.00 42 1018.9
20260901152709 33 261 4.8 6.4 0.00 0.00 0.00 42 1019.0
20260901152208 33 308 1.6 9.7 0.00 0.00 0.00 42 1019.0
20260901151704 33 230 1.6 4.8 0.00 0.00 0.00 43 1018.7
20260901151203 33 285 3.2 6.4 0.00 0.00 0.00 43 1019.0
20260901150658 33 223 3.2 6.4 0.00 0.00 0.00 43 1019.2
20260901150156 32 215 0.0 4.8 0.00 0.00 0.00 44 1019.0
20260901145653 32 93 1.6 6.4 0.00 0.00 0.00 45 1019.0
20260901145148 32 56 1.6 3.2 0.00 0.00 0.00 45 1019.0
20260901144644 31 208 3.2 9.7 0.00 0.00 0.00 46 1019.3
20260901144138 32 133 1.6 4.8 0.00 0.00 0.00 46 1019.2
20260901143634 31 200 1.6 9.7 0.00 0.00 0.00 47 1019.2
20260901143130 31 270 1.6 11.3 0.00 0.00 0.00 48 1019.2
20260901142626 31 155 3.2 14.5 0.00 0.00 0.00 48 1019.2
20260901142125 31 256 3.2 4.8 0.00 0.00 0.00 49 1019.4
20260901141620 31 196 1.6 9.7 0.00 0.00 0.00 49 1019.2
20260901141120 30 225 3.2 4.8 0.00 0.00 0.00 50 1019.3
20260901140619 30 138 3.2 4.8 0.00 0.00 0.00 50 1019.2
20260901140118 30 69 1.6 3.2 0.00 0.00 0.00 51 1019.5
20260901135618 30 4 0.0 9.7 0.00 0.00 0.00 51 1019.3
20260901135113 29 38 3.2 6.4 0.00 0.00 0.00 52 1019.3
20260901134609 29 165 1.6 4.8 0.00 0.00 0.00 52 1019.2
20260901134104 28 276 1.6 9.7 0.00 0.00 0.00 53 1019.0
20260901133602 28 264 1.6 4.8 0.00 0.00 0.00 54 1019.0
20260901133101 28 237 1.6 4.8 0.00 0.00 0.00 54 1019.2
20260901132556 28 149 1.6 3.2 0.00 0.00 0.00 54 1018.9
20260901132050 28 295 0.0 3.2 0.00 0.00 0.00 55 1018.7
20260901131551 27 358 0.0 1.6 0.00 0.00 0.00 56 1018.8
20260901131046 27 355 1.6 1.6 0.00 0.00 0.00 57 1018.9
20260901130545 27 168 3.2 3.2 0.00 0.00 0.00 57 1018.8
20260901130044 27 309 1.6 4.8 0.00 0.00 0.00 57 1018.7
20260901125543 27 254 0.0 4.8 0.00 0.00 0.00 58 1018.6
20260901125038 27 68 3.2 4.8 0.00 0.00 0.00 58 1018.8
20260901124533 27 42 1.6 4.8 0.00 0.00 0.00 58 1018.7
20260901124032 27 42 1.6 4.8 0.00 0.00 0.00 58 1018.7
20260901123527 27 248 1.6 6.4 0.00 0.00 0.00 58 1018.5
20260901123028 27 245 1.6 3.2 0.00 0.00 0.00 58 1018.5
20260901122526 27 29 4.8 9.7 0.00 0.00 0.00 57 1018.4
20260901122026 27 281 1.6 3.2 0.00 0.00 0.00 58 1018.3
20260901121520 27 110 0.0 1.6 0.00 0.00 0.00 58 1018.3
20260901121016 27 331 1.6 9.7 0.00 0.00 0.00 57 1018.3
20260901120515 27 136 1.6 4.8 0.00 0.00 0.00 57 1018.4
20260901120012 27 159 4.8 6.4 0.00 0.00 0.00 57 1018.1
20260901115506 27 187 4.8 6.4 0.00 0.00 0.00 57 1018.1
20260901115004 27 321 6.4 6.4 0.00 0.00 0.00 56 1018.3
20260901114459 27 268 6.4 9.7 0.00 0.00 0.00 57 1018.1
20260901113956 27 283 3.2 4.8 0.00 0.00 0.00 56 1017.9
20260901113456 27 12 1.6 6.4 0.00 0.00 0.00 56 1018.0
20260901112952 27 240 0.0 3.2 0.00 0.00 0.00 56 1018.1
20260901112447 27 20 1.6 9.7 0.00 0.00 0.00 56 1018.0
20260901111942 27 265 0.0 6.4 0.00 0.00 0.00 56 1017.9
20260901111440 27 254 3.2 4.8 0.00 0.00 0.00 55 1018.1
20260901110938 27 162 1.6 6.4 0.00 0.00 0.00 55 1018.1
20260901110434 27 156 3.2 6.4 0.00 0.00 0.00 55 1017.8
20260901105930 27 317 3.2 9.7 0.00 0.00 0.00 55 1017.9
20260901105426 27 266 3.2 3.2 0.00 0.00 0.00 55 1017.8
20260901104921 27 291 1.6 3.2 0.00 0.00 0.00 55 1017.9
20260901104416 27 261 3.2 6.4 0.00 0.00 0.00 55 1018.0
20260901103912 26 220 0.0 3.2 0.00 0.00 0.00 55 1018.1
20260901103412 26 283 1.6 4.8 0.00 0.00 0.00 55 1017.8
20260901102907 27 351 0.0 3.2 0.00 0.00 0.00 55 1017.9
20260901102401 27 106 0.0 3.2 0.00 0.00 0.00 55 1017.9
20260901101856 27 256 1.6 3.2 0.00 0.00 0.00 55 1017.9
20260901101351 27 227 0.0 3.2 0.00 0.00 0.00 54 1017.6
20260901100850 27 236 1.6 3.2 0.00 0.00 0.00 54 1017.9
20260901100345 27 167 1.6 3.2 0.00 0.00 0.00 53 1017.7
20260901095839 27 291 1.6 4.8 0.00 0.00 0.00 53 1017.8
20260901095336 27 269 1.6 3.2 0.00 0.00 0.00 52 1017.8
20260901094830 27 247 1.6 4.8 0.00 0.00 0.00 52 1017.8
20260901094325 27 134 1.6 3.2 0.00 0.00 0.00 52 1017.8
20260901093820 27 284 0.0 4.8 0.00 0.00 0.00 52 1017.7
20260901093319 27 285 3.2 3.2 0.00 0.00 0.00 52 1017.6
20260901092815 26 289 0.0 4.8 0.00 0.00 0.00 53 1017.6
20260901092306 26 74 1.6 3.2 0.00 0.00 0.00 53 1017.6
20260901091800 26 104 1.6 1.6 0.00 0.00 0.00 54 1017.5
20260901091255 26 102 3.2 3.2 0.00 0.00 0.00 54 1017.8
20260901090750 26 102 0.0 1.6 0.00 0.00 0.00 55 1017.7
20260901090245 26 96 0.0 1.6 0.00 0.00 0.00 55 1017.5
20260901085741 26 228 0.0 1.6 0.00 0.00 0.00 55 1017.7
20260901085236 26 228 0.0 1.6 0.00 0.00 0.00 55 1017.6
20260901084732 26 228 0.0 1.6 0.00 0.00 0.00 55 1017.4
20260901084228 25 229 0.0 0.0 0.00 0.00 0.00 55 1017.5
20260901083723 26 229 0.0 1.6 0.00 0.00 0.00 55 1017.4
20260901083222 25 229 0.0 1.6 0.00 0.00 0.00 55 1017.4
20260901082721 25 229 0.0 1.6 0.00 0.00 0.00 55 1017.3
20260901082217 25 229 0.0 1.6 0.00 0.00 0.00 56 1017.4
20260901081712 25 229 0.0 0.0 0.00 0.00 0.00 56 1017.3
20260901081212 25 229 0.0 0.0 0.00 0.00 0.00 56 1017.4
20260901080707 25 229 0.0 0.0 0.00 0.00 0.00 57 1017.4
20260901080206 25 229 0.0 0.0 0.00 0.00 0.00 57 1017.3
20260901075701 25 229 0.0 0.0 0.00 0.00 0.00 57 1017.4
20260901075200 25 229 0.0 0.0 0.00 0.00 0.00 57 1017.4
20260901074659 25 229 0.0 0.0 0.00 0.00 0.00 56 1017.5
20260901074154 25 229 0.0 0.0 0.00 0.00 0.00 57 1017.6
20260901073651 25 229 0.0 0.0 0.00 0.00 0.00 56 1017.2
20260901073146 25 229 0.0 0.0 0.00 0.00 0.00 56 1017.3
20260901072641 26 229 0.0 0.0 0.00 0.00 0.00 55 1017.3
20260901072136 26 229 0.0 0.0 0.00 0.00 0.00 55 1017.4
20260901071631 26 229 0.0 0.0 0.00 0.00 0.00 55 1017.3
20260901071130 26 229 0.0 0.0 0.00 0.00 0.00 55 1017.4
20260901070624 26 229 0.0 0.0 0.00 0.00 0.00 54 1017.3
20260901070120 26 229 0.0 0.0 0.00 0.00 0.00 53 1017.4
20260901065609 27 229 0.0 0.0 0.00 0.00 0.00 52 1017.4
20260901065108 27 229 0.0 0.0 0.00 0.00 0.00 51 1017.4
20260901064606 27 229 0.0 0.0 0.00 0.00 0.00 51 1017.4
20260901064102 27 229 0.0 0.0 0.00 0.00 0.00 51 1017.4
20260901063553 27 229 0.0 1.6 0.00 0.00 0.00 50 1017.4
20260901063048 27 229 0.0 0.0 0.00 0.00 0.00 51 1017.4
20260901062544 27 229 0.0 0.0 0.00 0.00 0.00 50 1017.3
20260901062040 27 229 0.0 0.0 0.00 0.00 0.00 50 1017.4
20260901061536 27 229 0.0 0.0 0.00 0.00 0.00 50 1017.3
20260901061031 27 229 0.0 0.0 0.00 0.00 0.00 49 1017.4
20260901060530 27 229 0.0 0.0 0.00 0.00 0.00 50 1017.3
20260901060025 27 229 0.0 1.6 0.00 0.00 0.00 49 1017.5
20260901055516 27 229 0.0 0.0 0.00 0.00 0.00 49 1017.3
20260901055013 28 229 0.0 0.0 0.00 0.00 0.00 49 1017.5
20260901054509 28 229 0.0 0.0 0.00 0.00 0.00 49 1017.6
20260901054004 28 229 0.0 0.0 0.00 0.00 0.00 48 1017.4
20260901053454 28 229 0.0 0.0 0.00 0.00 0.00 47 1017.3
20260901052949 28 229 0.0 1.6 0.00 0.00 0.00 46 1017.4
20260901052446 28 169 0.0 1.6 0.00 0.00 0.00 47 1017.4
20260901051944 28 165 0.0 1.6 0.00 0.00 0.00 47 1017.3
20260901051439 28 165 0.0 1.6 0.00 0.00 0.00 46 1017.2
20260901050933 28 97 0.0 1.6 0.00 0.00 0.00 46 1017.3
20260901050429 29 70 0.0 0.0 0.00 0.00 0.00 46 1017.3
20260901045928 29 138 0.0 0.0 0.00 0.00 0.00 46 1017.2
20260901045423 29 173 0.0 0.0 0.00 0.00 0.00 47 1017.2
20260901044918 29 173 0.0 0.0 0.00 0.00 0.00 45 1017.3
20260901044415 29 117 0.0 0.0 0.00 0.00 0.00 45 1017.2
20260901043911 30 83 0.0 1.6 0.00 0.00 0.00 44 1017.2
20260901043407 30 268 1.6 1.6 0.00 0.00 0.00 44 1017.2
20260901042906 30 269 0.0 0.0 0.00 0.00 0.00 45 1017.2
20260901042401 30 269 1.6 1.6 0.00 0.00 0.00 43 1017.1
20260901041856 30 169 0.0 4.8 0.00 0.00 0.00 42 1017.0
20260901041351 30 14 0.0 1.6 0.00 0.00 0.00 42 1016.9
20260901040845 31 61 1.6 3.2 0.00 0.00 0.00 42 1017.1
20260901040344 31 211 0.0 1.6 0.00 0.00 0.00 42 1017.0
20260901035839 31 104 1.6 3.2 0.00 0.00 0.00 41 1017.0
20260901035337 31 64 0.0 3.2 0.00 0.00 0.00 41 1017.0
20260901034836 31 236 0.0 3.2 0.00 0.00 0.00 41 1017.2
20260901034332 31 177 3.2 3.2 0.00 0.00 0.00 41 1017.0
20260901033831 31 242 1.6 3.2 0.00 0.00 0.00 41 1016.9
20260901033330 31 230 1.6 3.2 0.00 0.00 0.00 40 1016.8
20260901032829 31 290 1.6 9.7 0.00 0.00 0.00 40 1017.0
20260901032329 31 215 0.0 4.8 0.00 0.00 0.00 41 1016.9
20260901031824 31 224 0.0 3.2 0.00 0.00 0.00 41 1016.9
20260901031320 31 283 1.6 4.8 0.00 0.00 0.00 40 1016.9
20260901030819 31 234 0.0 4.8 0.00 0.00 0.00 41 1016.8
20260901030314 31 326 1.6 3.2 0.00 0.00 0.00 40 1016.7
20260901025813 31 285 1.6 3.2 0.00 0.00 0.00 40 1016.5
20260901025308 31 30 0.0 3.2 0.00 0.00 0.00 40 1016.5
20260901024758 31 187 0.0 3.2 0.00 0.00 0.00 40 1016.6
20260901024257 31 225 1.6 3.2 0.00 0.00 0.00 39 1016.5
20260901023755 31 286 0.0 3.2 0.00 0.00 0.00 39 1016.4
20260901023250 32 274 3.2 4.8 0.00 0.00 0.00 39 1016.5
20260901022746 32 145 0.0 1.6 0.00 0.00 0.00 39 1016.2
20260901022242 32 183 0.0 1.6 0.00 0.00 0.00 39 1016.1
20260901021736 32 84 0.0 1.6 0.00 0.00 0.00 38 1015.7
20260901021232 32 131 0.0 3.2 0.00 0.00 0.00 38 1015.8
20260901020727 32 136 0.0 3.2 0.00 0.00 0.00 37 1015.8
20260901020222 32 80 0.0 1.6 0.00 0.00 0.00 37 1015.7
20260901015717 33 43 0.0 3.2 0.00 0.00 0.00 37 1015.8
20260901015212 33 54 0.0 3.2 0.00 0.00 0.00 36 1015.6